Погода в Осино-Гае

Россия / Тамбовская область     53°02′01″N   42°23′56″E
темп.,
°C
ветер,
м/с
пор.,
м/с
влажн.,
%
обл.,
%
осадки,
мм/ч
давл.,
гПа
погр.,
м
25 июля, вс
вс2500:00+14св227098 0.0 101713
03:00+13св22725 0.0 101812
06:00+15в23707 0.0 101985
09:00+19всв225372 0.0 1020691
12:00+23юз124098 0.0 10202651
15:00+20всв4552100 0.0 1021330
18:00+20вюв225498 0.0 1021339
21:00+18юв2260100 0.0 102239
26 июля, пн
пн2600:00+17ююв115816 0.0 102311
03:00+14ю116949 0.0 102411
06:00+16всв116683 0.0 102434
09:00+21ю114425 0.0 1024632
12:00+24з233348 0.0 10242443
15:00+24з333396 0.0 10232273
18:00+22з124399 0.0 1023124
21:00+18св11508 0.0 102311
27 июля, вт
вт2700:00+17ююз11557 0.0 102312
03:00+15сз22585 0.0 102310
06:00+17сз22605 0.0 102362
09:00+23ссз234446 0.0 1023636
12:00+26ссз353517 0.0 10222394
15:00+26зсз343499 0.0 10202325
18:00+24ссв3540100 0.0 1020165
21:00+20ююз115082 0.0 102011
28 июля, ср
ср2800:00+18з22581 0.0 102011
03:00+17з33596 0.0 101927
06:00+18сз24635 0.0 1019105
09:00+25зсз33425 0.0 1019568
12:00+28зюз333122 0.0 10172600
15:00+29зюз443065 0.0 10162658
18:00+27з3536100 0.0 1015440
21:00+23ю334299 0.0 101340
29 июля, чт
чт2900:00+20зсз6972100 0.1 1014391
03:00+18вюв3486100 0.6 101298
06:00+18ююв41088100 0.4 1010255
09:00+24ююз7105289 0.4 10081077
12:00+27юз7949100 0.1 10071880
15:00+26юз485092 0.4 1006557
18:00+27зсз484585 0.0 1005642
21:00+22сз2260100 0.0 100650